owner,sensor,date,latitude,longitude,air_temperature,qcFlag 
TABS,ioos:station:wmo:42046:1,2016-10-01T00:00:00Z,27.8903,-94.0367,-5.7,11144222 
TABS,ioos:station:wmo:42046:1,2016-10-01T00:30:00Z,27.8903,-94.0367,-6.7,11144222 
TABS,ioos:station:wmo:42046:1,2016-10-01T01:00:00Z,27.8903,-94.0367,-5.9,11144222 
TABS,ioos:station:wmo:42046:1,2016-10-01T01:30:00Z,27.8903,-94.0367,-6.8,11144222 
TABS,ioos:station:wmo:42046:1,2016-10-01T02:00:00Z,27.8903,-94.0367,-6.1,11144222 
TABS,ioos:station:wmo:42046:1,2016-10-01T02:30:00Z,27.8903,-94.0367,-6.9,11144222 
TABS,ioos:station:wmo:42046:1,2016-10-01T03:00:00Z,27.8903,-94.0367,-6.0,11144222 
TABS,ioos:station:wmo:42046:1,2016-10-01T03:30:00Z,27.8903,-94.0367,-6.9,11144222 
TABS,ioos:station:wmo:42046:1,2016-10-01T04:00:00Z,27.8903,-94.0367,-6.0,11144222 
TABS,ioos:station:wmo:42046:1,2016-10-01T04:30:00Z,27.8903,-94.0367,-6.0,11144222 
TABS,ioos:station:wmo:42046:1,2016-10-01T05:00:00Z,27.8903,-94.0367,-6.6,11144222 
TABS,ioos:station:wmo:42046:1,2016-10-01T05:30:00Z,27.8903,-94.0367,-5.7,11144222 
TABS,ioos:station:wmo:42046:1,2016-10-01T06:00:00Z,27.8903,-94.0367,-6.4,11144222 
TABS,ioos:station:wmo:42046:1,2016-10-01T06:30:00Z,27.8903,-94.0367,-5.5,11144222 
TABS,ioos:station:wmo:42046:1,2016-10-01T07:00:00Z,27.8903,-94.0367,-5.3,11144222 
TABS,ioos:station:wmo:42046:1,2016-10-01T07:30:00Z,27.8903,-94.0367,-5.8,11144222 
TABS,ioos:station:wmo:42046:1,2016-10-01T08:00:00Z,27.8903,-94.0367,-5.3,11144222 
TABS,ioos:station:wmo:42046:1,2016-10-01T08:30:00Z,27.8903,-94.0367,-6.6,11144222 
TABS,ioos:station:wmo:42046:1,2016-10-01T09:00:00Z,27.8903,-94.0367,-5.5,11144222 
TABS,ioos:station:wmo:42046:1,2016-10-01T09:30:00Z,27.8903,-94.0367,-6.6,11144222 
TABS,ioos:station:wmo:42046:1,2016-10-01T10:00:00Z,27.8903,-94.0367,-6.0,11144222 
TABS,ioos:station:wmo:42046:1,2016-10-01T10:30:00Z,27.8903,-94.0367,-6.6,11144222 
TABS,ioos:station:wmo:42046:1,2016-10-01T11:00:00Z,27.8903,-94.0367,-5.6,11144222 
TABS,ioos:station:wmo:42046:1,2016-10-01T11:30:00Z,27.8903,-94.0367,-5.5,11144222 
TABS,ioos:station:wmo:42046:1,2016-10-01T12:00:00Z,27.8903,-94.0367,-6.3,11144222 
TABS,ioos:station:wmo:42046:1,2016-10-01T12:30:00Z,27.8903,-94.0367,-5.6,11144222 
TABS,ioos:station:wmo:42046:1,2016-10-01T13:00:00Z,27.8903,-94.0367,-6.2,11144222 
TABS,ioos:station:wmo:42046:1,2016-10-01T13:30:00Z,27.8903,-94.0367,-5.0,11144222 
TABS,ioos:station:wmo:42046:1,2016-10-01T14:00:00Z,27.8903,-94.0367,-6.2,11144222 
TABS,ioos:station:wmo:42046:1,2016-10-01T14:30:00Z,27.8903,-94.0367,-5.4,11144222 
TABS,ioos:station:wmo:42046:1,2016-10-01T15:00:00Z,27.8903,-94.0367,-5.7,11144222 
TABS,ioos:station:wmo:42046:1,2016-10-01T15:30:00Z,27.8903,-94.0367,-5.8,11144222 
TABS,ioos:station:wmo:42046:1,2016-10-01T16:00:00Z,27.8903,-94.0367,-4.7,11144222 
TABS,ioos:station:wmo:42046:1,2016-10-01T16:30:00Z,27.8903,-94.0367,-5.7,11144222 
TABS,ioos:station:wmo:42046:1,2016-10-01T17:00:00Z,27.8903,-94.0367,-4.9,11144222 
TABS,ioos:station:wmo:42046:1,2016-10-01T17:30:00Z,27.8903,-94.0367,-4.7,11144222 
TABS,ioos:station:wmo:42046:1,2016-10-01T18:00:00Z,27.8903,-94.0367,-5.2,11144222 
TABS,ioos:station:wmo:42046:1,2016-10-01T18:30:00Z,27.8903,-94.0367,-5.0,11144222 
TABS,ioos:station:wmo:42046:1,2016-10-01T19:00:00Z,27.8903,-94.0367,-4.8,11144222 
TABS,ioos:station:wmo:42046:1,2016-10-01T19:30:00Z,27.8903,-94.0367,-5.3,11144222 
TABS,ioos:station:wmo:42046:1,2016-10-01T20:00:00Z,27.8903,-94.0367,-5.8,11144222 
TABS,ioos:station:wmo:42046:1,2016-10-01T20:30:00Z,27.8903,-94.0367,-5.2,11144222 
TABS,ioos:station:wmo:42046:1,2016-10-01T21:00:00Z,27.8903,-94.0367,-4.7,11144222 
TABS,ioos:station:wmo:42046:1,2016-10-01T21:30:00Z,27.8903,-94.0367,-5.4,11144222 
TABS,ioos:station:wmo:42046:1,2016-10-01T22:00:00Z,27.8903,-94.0367,-6.0,11144222 
TABS,ioos:station:wmo:42046:1,2016-10-01T22:30:00Z,27.8903,-94.0367,-6.1,11144222 
TABS,ioos:station:wmo:42046:1,2016-10-01T23:00:00Z,27.8903,-94.0367,-6.7,11144222 
TABS,ioos:station:wmo:42046:1,2016-10-01T23:30:00Z,27.8903,-94.0367,-6.1,11144222 
TABS,ioos:station:wmo:42046:1,2016-10-02T00:00:00Z,27.8903,-94.0367,-6.0,11144222 
TABS,ioos:station:wmo:42046:1,2016-10-02T00:30:00Z,27.8903,-94.0367,-6.5,11144222 
TABS,ioos:station:wmo:42046:1,2016-10-02T01:00:00Z,27.8903,-94.0367,-6.2,11144222 
TABS,ioos:station:wmo:42046:1,2016-10-02T01:30:00Z,27.8903,-94.0367,-5.7,11144222 
TABS,ioos:station:wmo:42046:1,2016-10-02T02:00:00Z,27.8903,-94.0367,-2.0,11144222 
TABS,ioos:station:wmo:42046:1,2016-10-02T02:30:00Z,27.8903,-94.0367,-6.4,11144222 
TABS,ioos:station:wmo:42046:1,2016-10-02T03:00:00Z,27.8903,-94.0367,-6.0,11144222 
TABS,ioos:station:wmo:42046:1,2016-10-02T03:30:00Z,27.8903,-94.0367,-6.6,11144222 
TABS,ioos:station:wmo:42046:1,2016-10-02T04:00:00Z,27.8903,-94.0367,-6.3,11144222 
TABS,ioos:station:wmo:42046:1,2016-10-02T04:30:00Z,27.8903,-94.0367,-6.4,11144222 
TABS,ioos:station:wmo:42046:1,2016-10-02T05:00:00Z,27.8903,-94.0367,-5.9,11144222 
TABS,ioos:station:wmo:42046:1,2016-10-02T05:30:00Z,27.8903,-94.0367,-6.2,11144222 
TABS,ioos:station:wmo:42046:1,2016-10-02T06:00:00Z,27.8903,-94.0367,-6.2,11144222 
TABS,ioos:station:wmo:42046:1,2016-10-02T06:30:00Z,27.8903,-94.0367,-6.4,11144222 
TABS,ioos:station:wmo:42046:1,2016-10-02T07:00:00Z,27.8903,-94.0367,-6.2,11144222 
TABS,ioos:station:wmo:42046:1,2016-10-02T07:30:00Z,27.8903,-94.0367,-6.3,11144222 
TABS,ioos:station:wmo:42046:1,2016-10-02T08:00:00Z,27.8903,-94.0367,-6.9,11144222 
TABS,ioos:station:wmo:42046:1,2016-10-02T08:30:00Z,27.8903,-94.0367,-6.6,11144222 
TABS,ioos:station:wmo:42046:1,2016-10-02T09:00:00Z,27.8903,-94.0367,-7.5,11144222 
TABS,ioos:station:wmo:42046:1,2016-10-02T09:30:00Z,27.8903,-94.0367,-7.4,11144222 
TABS,ioos:station:wmo:42046:1,2016-10-02T10:00:00Z,27.8903,-94.0367,-7.3,11144222 
TABS,ioos:station:wmo:42046:1,2016-10-02T10:30:00Z,27.8903,-94.0367,-8.1,11144222 
TABS,ioos:station:wmo:42046:1,2016-10-02T11:00:00Z,27.8903,-94.0367,-7.3,11144222 
TABS,ioos:station:wmo:42046:1,2016-10-02T11:30:00Z,27.8903,-94.0367,-5.6,11144222 
TABS,ioos:station:wmo:42046:1,2016-10-02T12:00:00Z,27.8903,-94.0367,-6.0,11144222 
TABS,ioos:station:wmo:42046:1,2016-10-02T12:30:00Z,27.8903,-94.0367,-6.1,11144222 
TABS,ioos:station:wmo:42046:1,2016-10-02T13:00:00Z,27.8903,-94.0367,-5.8,11144222 
TABS,ioos:station:wmo:42046:1,2016-10-02T13:30:00Z,27.8903,-94.0367,-5.4,11144222 
TABS,ioos:station:wmo:42046:1,2016-10-02T14:00:00Z,27.8903,-94.0367,-5.8,11144222 
TABS,ioos:station:wmo:42046:1,2016-10-02T14:30:00Z,27.8903,-94.0367,-5.2,11144222 
TABS,ioos:station:wmo:42046:1,2016-10-02T15:00:00Z,27.8903,-94.0367,-4.8,11144222 
TABS,ioos:station:wmo:42046:1,2016-10-02T15:30:00Z,27.8903,-94.0367,-4.7,11144222 
TABS,ioos:station:wmo:42046:1,2016-10-02T16:00:00Z,27.8903,-94.0367,-4.9,11144222 
TABS,ioos:station:wmo:42046:1,2016-10-02T16:30:00Z,27.8903,-94.0367,-5.2,11144222 
TABS,ioos:station:wmo:42046:1,2016-10-02T17:00:00Z,27.8903,-94.0367,-4.7,11144222 
TABS,ioos:station:wmo:42046:1,2016-10-02T17:30:00Z,27.8903,-94.0367,-5.8,11144222 
TABS,ioos:station:wmo:42046:1,2016-10-02T18:00:00Z,27.8903,-94.0367,-5.6,11144222 
TABS,ioos:station:wmo:42046:1,2016-10-02T18:30:00Z,27.8903,-94.0367,-4.9,11144222 
TABS,ioos:station:wmo:42046:1,2016-10-02T19:00:00Z,27.8903,-94.0367,-5.6,11144222 
TABS,ioos:station:wmo:42046:1,2016-10-02T19:30:00Z,27.8903,-94.0367,-6.0,11144222 
TABS,ioos:station:wmo:42046:1,2016-10-02T20:00:00Z,27.8903,-94.0367,-5.8,11144222 
TABS,ioos:station:wmo:42046:1,2016-10-02T20:30:00Z,27.8903,-94.0367,-6.9,11144222 
TABS,ioos:station:wmo:42046:1,2016-10-02T21:00:00Z,27.8903,-94.0367,-6.5,11144222 
TABS,ioos:station:wmo:42046:1,2016-10-02T21:30:00Z,27.8903,-94.0367,-6.4,11144222 
TABS,ioos:station:wmo:42046:1,2016-10-02T22:00:00Z,27.8903,-94.0367,-6.0,11144222 
TABS,ioos:station:wmo:42046:1,2016-10-02T22:30:00Z,27.8903,-94.0367,-6.1,11144222 
TABS,ioos:station:wmo:42046:1,2016-10-02T23:00:00Z,27.8903,-94.0367,-5.7,11144222 
TABS,ioos:station:wmo:42046:1,2016-10-02T23:30:00Z,27.8903,-94.0367,-5.2,11144222 
TABS,ioos:station:wmo:42046:1,2016-10-03T00:00:00Z,27.8903,-94.0367,-5.5,11144222 
TABS,ioos:station:wmo:42046:1,2016-10-03T00:30:00Z,27.8903,-94.0367,-5.3,11144222 
TABS,ioos:station:wmo:42046:1,2016-10-03T01:00:00Z,27.8903,-94.0367,-6.1,11144222 
TABS,ioos:station:wmo:42046:1,2016-10-03T01:30:00Z,27.8903,-94.0367,-5.8,11144222 
TABS,ioos:station:wmo:42046:1,2016-10-03T02:00:00Z,27.8903,-94.0367,-6.4,11144222 
TABS,ioos:station:wmo:42046:1,2016-10-03T02:30:00Z,27.8903,-94.0367,-6.8,11144222 
TABS,ioos:station:wmo:42046:1,2016-10-03T03:00:00Z,27.8903,-94.0367,-7.6,11144222 
TABS,ioos:station:wmo:42046:1,2016-10-03T03:30:00Z,27.8903,-94.0367,-7.0,11144222 
TABS,ioos:station:wmo:42046:1,2016-10-03T04:00:00Z,27.8903,-94.0367,-6.4,11144222 
TABS,ioos:station:wmo:42046:1,2016-10-03T04:30:00Z,27.8903,-94.0367,-7.0,11144222 
TABS,ioos:station:wmo:42046:1,2016-10-03T05:00:00Z,27.8903,-94.0367,-7.5,11144222 
TABS,ioos:station:wmo:42046:1,2016-10-03T05:30:00Z,27.8903,-94.0367,-7.4,11144222 
TABS,ioos:station:wmo:42046:1,2016-10-03T06:00:00Z,27.8903,-94.0367,-8.3,11144222 
TABS,ioos:station:wmo:42046:1,2016-10-03T06:30:00Z,27.8903,-94.0367,-7.5,11144222 
TABS,ioos:station:wmo:42046:1,2016-10-03T07:00:00Z,27.8903,-94.0367,-8.1,11144222 
TABS,ioos:station:wmo:42046:1,2016-10-03T07:30:00Z,27.8903,-94.0367,-8.5,11144222 
TABS,ioos:station:wmo:42046:1,2016-10-03T08:00:00Z,27.8903,-94.0367,-7.1,11144222 
TABS,ioos:station:wmo:42046:1,2016-10-03T08:30:00Z,27.8903,-94.0367,-7.7,11144222 
TABS,ioos:station:wmo:42046:1,2016-10-03T09:00:00Z,27.8903,-94.0367,-8.2,11144222 
TABS,ioos:station:wmo:42046:1,2016-10-03T09:30:00Z,27.8903,-94.0367,-7.4,11144222 
TABS,ioos:station:wmo:42046:1,2016-10-03T10:00:00Z,27.8903,-94.0367,-7.9,11144222 
TABS,ioos:station:wmo:42046:1,2016-10-03T10:30:00Z,27.8903,-94.0367,-7.1,11144222 
TABS,ioos:station:wmo:42046:1,2016-10-03T11:00:00Z,27.8903,-94.0367,-8.5,11144222 
TABS,ioos:station:wmo:42046:1,2016-10-03T11:30:00Z,27.8903,-94.0367,-7.5,11144222 
TABS,ioos:station:wmo:42046:1,2016-10-03T12:00:00Z,27.8903,-94.0367,-6.6,11144222 
TABS,ioos:station:wmo:42046:1,2016-10-03T12:30:00Z,27.8903,-94.0367,-7.6,11144222 
TABS,ioos:station:wmo:42046:1,2016-10-03T13:00:00Z,27.8903,-94.0367,-7.6,11144222 
TABS,ioos:station:wmo:42046:1,2016-10-03T13:30:00Z,27.8903,-94.0367,-7.1,11144222 
TABS,ioos:station:wmo:42046:1,2016-10-03T14:00:00Z,27.8903,-94.0367,-7.1,11144222 
TABS,ioos:station:wmo:42046:1,2016-10-03T14:30:00Z,27.8903,-94.0367,-5.6,11144222 
TABS,ioos:station:wmo:42046:1,2016-10-03T15:00:00Z,27.8903,-94.0367,-6.1,11144222 
TABS,ioos:station:wmo:42046:1,2016-10-03T15:30:00Z,27.8903,-94.0367,-6.9,11144222 
TABS,ioos:station:wmo:42046:1,2016-10-03T16:00:00Z,27.8903,-94.0367,-6.5,11144222 
TABS,ioos:station:wmo:42046:1,2016-10-03T16:30:00Z,27.8903,-94.0367,-7.0,11144222 
TABS,ioos:station:wmo:42046:1,2016-10-03T17:00:00Z,27.8903,-94.0367,-7.0,11144222 
TABS,ioos:station:wmo:42046:1,2016-10-03T17:30:00Z,27.8903,-94.0367,-5.8,11144222 
TABS,ioos:station:wmo:42046:1,2016-10-03T18:00:00Z,27.8903,-94.0367,-6.8,11144222 
TABS,ioos:station:wmo:42046:1,2016-10-03T18:30:00Z,27.8903,-94.0367,-5.8,11144222 
TABS,ioos:station:wmo:42046:1,2016-10-03T19:00:00Z,27.8903,-94.0367,-4.6,11144222 
TABS,ioos:station:wmo:42046:1,2016-10-03T19:30:00Z,27.8903,-94.0367,-5.6,11144222 
TABS,ioos:station:wmo:42046:1,2016-10-03T20:00:00Z,27.8903,-94.0367,-4.1,11144222 
TABS,ioos:station:wmo:42046:1,2016-10-03T20:30:00Z,27.8903,-94.0367,-5.0,11144222 
TABS,ioos:station:wmo:42046:1,2016-10-03T21:00:00Z,27.8903,-94.0367,-3.8,11144222 
TABS,ioos:station:wmo:42046:1,2016-10-03T21:30:00Z,27.8903,-94.0367,-4.8,11144222 
TABS,ioos:station:wmo:42046:1,2016-10-03T22:00:00Z,27.8903,-94.0367,-5.1,11144222 
TABS,ioos:station:wmo:42046:1,2016-10-03T22:30:00Z,27.8903,-94.0367,-4.4,11144222 
TABS,ioos:station:wmo:42046:1,2016-10-03T23:00:00Z,27.8903,-94.0367,-5.5,11144222 
TABS,ioos:station:wmo:42046:1,2016-10-03T23:30:00Z,27.8903,-94.0367,-4.9,11144222 
TABS,ioos:station:wmo:42046:1,2016-10-04T00:00:00Z,27.8903,-94.0367,-5.0,11144222 
TABS,ioos:station:wmo:42046:1,2016-10-04T00:30:00Z,27.8903,-94.0367,-6.3,11144222 
TABS,ioos:station:wmo:42046:1,2016-10-04T01:00:00Z,27.8903,-94.0367,-5.8,11144222 
TABS,ioos:station:wmo:42046:1,2016-10-04T01:30:00Z,27.8903,-94.0367,-5.6,11144222 
TABS,ioos:station:wmo:42046:1,2016-10-04T02:00:00Z,27.8903,-94.0367,-6.5,11144222 
TABS,ioos:station:wmo:42046:1,2016-10-04T02:30:00Z,27.8903,-94.0367,-6.3,11144222 
TABS,ioos:station:wmo:42046:1,2016-10-04T03:00:00Z,27.8903,-94.0367,-6.2,11144222 
TABS,ioos:station:wmo:42046:1,2016-10-04T03:30:00Z,27.8903,-94.0367,-6.8,11144222 
TABS,ioos:station:wmo:42046:1,2016-10-04T04:00:00Z,27.8903,-94.0367,-7.0,11144222 
TABS,ioos:station:wmo:42046:1,2016-10-04T04:30:00Z,27.8903,-94.0367,-8.5,11144222 
TABS,ioos:station:wmo:42046:1,2016-10-04T05:00:00Z,27.8903,-94.0367,-7.0,11144222 
TABS,ioos:station:wmo:42046:1,2016-10-04T05:30:00Z,27.8903,-94.0367,-8.2,11144222 
TABS,ioos:station:wmo:42046:1,2016-10-04T06:00:00Z,27.8903,-94.0367,-8.1,11144222 
TABS,ioos:station:wmo:42046:1,2016-10-04T06:30:00Z,27.8903,-94.0367,-8.3,11144222 
TABS,ioos:station:wmo:42046:1,2016-10-04T07:00:00Z,27.8903,-94.0367,-8.1,11144222 
TABS,ioos:station:wmo:42046:1,2016-10-04T07:30:00Z,27.8903,-94.0367,-8.1,11144222 
TABS,ioos:station:wmo:42046:1,2016-10-04T08:00:00Z,27.8903,-94.0367,-7.8,11144222 
TABS,ioos:station:wmo:42046:1,2016-10-04T08:30:00Z,27.8903,-94.0367,-8.5,11144222 
TABS,ioos:station:wmo:42046:1,2016-10-04T09:00:00Z,27.8903,-94.0367,-9.2,11144222 
TABS,ioos:station:wmo:42046:1,2016-10-04T09:30:00Z,27.8903,-94.0367,-9.7,11144222 
TABS,ioos:station:wmo:42046:1,2016-10-04T10:00:00Z,27.8903,-94.0367,-10.0,11144222 
TABS,ioos:station:wmo:42046:1,2016-10-04T10:30:00Z,27.8903,-94.0367,-9.5,11144222 
TABS,ioos:station:wmo:42046:1,2016-10-04T11:00:00Z,27.8903,-94.0367,-8.7,11144222 
TABS,ioos:station:wmo:42046:1,2016-10-04T11:30:00Z,27.8903,-94.0367,-9.3,11144222 
TABS,ioos:station:wmo:42046:1,2016-10-04T12:00:00Z,27.8903,-94.0367,-10.0,11144222 
TABS,ioos:station:wmo:42046:1,2016-10-04T12:30:00Z,27.8903,-94.0367,-12.5,11144222 
TABS,ioos:station:wmo:42046:1,2016-10-04T13:00:00Z,27.8903,-94.0367,-13.0,11144222 
TABS,ioos:station:wmo:42046:1,2016-10-04T13:30:00Z,27.8903,-94.0367,-12.2,11144222 
TABS,ioos:station:wmo:42046:1,2016-10-04T14:00:00Z,27.8903,-94.0367,-11.6,11144222 
TABS,ioos:station:wmo:42046:1,2016-10-04T14:30:00Z,27.8903,-94.0367,-11.5,11144222 
TABS,ioos:station:wmo:42046:1,2016-10-04T15:00:00Z,27.8903,-94.0367,-13.7,11144222 
TABS,ioos:station:wmo:42046:1,2016-10-04T15:30:00Z,27.8903,-94.0367,-15.0,11144222 
TABS,ioos:station:wmo:42046:1,2016-10-04T16:00:00Z,27.8903,-94.0367,-16.1,11144222 
TABS,ioos:station:wmo:42046:1,2016-10-04T16:30:00Z,27.8903,-94.0367,-999.0,1111122 
TABS,ioos:station:wmo:42046:1,2016-10-04T17:00:00Z,27.8903,-94.0367,-999.0,22222222 
TABS,ioos:station:wmo:42046:1,2016-10-04T17:30:00Z,27.8903,-94.0367,-999.0,1111122 
TABS,ioos:station:wmo:42046:1,2016-10-04T18:00:00Z,27.8903,-94.0367,-999.0,22222222 
TABS,ioos:station:wmo:42046:1,2016-10-04T18:30:00Z,27.8903,-94.0367,-999.0,22222222 
TABS,ioos:station:wmo:42046:1,2016-10-04T19:00:00Z,27.8903,-94.0367,-999.0,22222222 
TABS,ioos:station:wmo:42046:1,2016-10-04T19:30:00Z,27.8903,-94.0367,-3.3,11144222 
TABS,ioos:station:wmo:42046:1,2016-10-04T20:00:00Z,27.8903,-94.0367,-999.0,22222222 
TABS,ioos:station:wmo:42046:1,2016-10-04T20:30:00Z,27.8903,-94.0367,-999.0,22222222 
TABS,ioos:station:wmo:42046:1,2016-10-04T21:00:00Z,27.8903,-94.0367,-999.0,1111122 
TABS,ioos:station:wmo:42046:1,2016-10-04T21:30:00Z,27.8903,-94.0367,-999.0,22222222 
TABS,ioos:station:wmo:42046:1,2016-10-04T22:00:00Z,27.8903,-94.0367,-999.0,22222222 
TABS,ioos:station:wmo:42046:1,2016-10-04T22:30:00Z,27.8903,-94.0367,-999.0,22222222 
TABS,ioos:station:wmo:42046:1,2016-10-04T23:00:00Z,27.8903,-94.0367,-999.0,22222222 
TABS,ioos:station:wmo:42046:1,2016-10-04T23:30:00Z,27.8903,-94.0367,-999.0,1111122 
TABS,ioos:station:wmo:42046:1,2016-10-05T00:00:00Z,27.8903,-94.0367,-999.0,22222222 
TABS,ioos:station:wmo:42046:1,2016-10-05T00:30:00Z,27.8903,-94.0367,-999.0,22222222 
TABS,ioos:station:wmo:42046:1,2016-10-05T01:00:00Z,27.8903,-94.0367,-999.0,22222222 
TABS,ioos:station:wmo:42046:1,2016-10-05T01:30:00Z,27.8903,-94.0367,-999.0,22222222 
TABS,ioos:station:wmo:42046:1,2016-10-05T02:00:00Z,27.8903,-94.0367,-999.0,22222222 
TABS,ioos:station:wmo:42046:1,2016-10-05T02:30:00Z,27.8903,-94.0367,-999.0,1111122 
TABS,ioos:station:wmo:42046:1,2016-10-05T03:00:00Z,27.8903,-94.0367,-999.0,22222222 
TABS,ioos:station:wmo:42046:1,2016-10-05T03:30:00Z,27.8903,-94.0367,-999.0,22222222 
TABS,ioos:station:wmo:42046:1,2016-10-05T04:00:00Z,27.8903,-94.0367,-999.0,22222222 
TABS,ioos:station:wmo:42046:1,2016-10-05T04:30:00Z,27.8903,-94.0367,-999.0,22222222 
TABS,ioos:station:wmo:42046:1,2016-10-05T05:00:00Z,27.8903,-94.0367,-999.0,22222222 
TABS,ioos:station:wmo:42046:1,2016-10-05T05:30:00Z,27.8903,-94.0367,-999.0,22222222 
TABS,ioos:station:wmo:42046:1,2016-10-05T06:00:00Z,27.8903,-94.0367,-999.0,22222222 
TABS,ioos:station:wmo:42046:1,2016-10-05T06:30:00Z,27.8903,-94.0367,-999.0,22222222 
TABS,ioos:station:wmo:42046:1,2016-10-05T07:00:00Z,27.8903,-94.0367,-999.0,1111122 
TABS,ioos:station:wmo:42046:1,2016-10-05T07:30:00Z,27.8903,-94.0367,-999.0,22222222 
TABS,ioos:station:wmo:42046:1,2016-10-05T08:00:00Z,27.8903,-94.0367,-999.0,22222222 
TABS,ioos:station:wmo:42046:1,2016-10-05T08:30:00Z,27.8903,-94.0367,-999.0,22222222 
TABS,ioos:station:wmo:42046:1,2016-10-05T09:00:00Z,27.8903,-94.0367,-999.0,22222222 
TABS,ioos:station:wmo:42046:1,2016-10-05T09:30:00Z,27.8903,-94.0367,-999.0,22222222 
TABS,ioos:station:wmo:42046:1,2016-10-05T10:00:00Z,27.8903,-94.0367,-999.0,1111122 
TABS,ioos:station:wmo:42046:1,2016-10-05T10:30:00Z,27.8903,-94.0367,-999.0,1111122 
TABS,ioos:station:wmo:42046:1,2016-10-05T11:00:00Z,27.8903,-94.0367,-999.0,22222222 
TABS,ioos:station:wmo:42046:1,2016-10-05T11:30:00Z,27.8903,-94.0367,-999.0,22222222 
TABS,ioos:station:wmo:42046:1,2016-10-05T12:00:00Z,27.8903,-94.0367,-999.0,22222222 
TABS,ioos:station:wmo:42046:1,2016-10-05T12:30:00Z,27.8903,-94.0367,-999.0,22222222 
TABS,ioos:station:wmo:42046:1,2016-10-05T13:00:00Z,27.8903,-94.0367,-999.0,22222222 
TABS,ioos:station:wmo:42046:1,2016-10-05T13:30:00Z,27.8903,-94.0367,-999.0,1111122 
TABS,ioos:station:wmo:42046:1,2016-10-05T14:00:00Z,27.8903,-94.0367,-999.0,22222222 
TABS,ioos:station:wmo:42046:1,2016-10-05T14:30:00Z,27.8903,-94.0367,-999.0,22222222 
TABS,ioos:station:wmo:42046:1,2016-10-05T15:00:00Z,27.8903,-94.0367,-999.0,22222222 
TABS,ioos:station:wmo:42046:1,2016-10-05T15:30:00Z,27.8903,-94.0367,-999.0,22222222 
TABS,ioos:station:wmo:42046:1,2016-10-05T16:00:00Z,27.8903,-94.0367,-999.0,22222222 
TABS,ioos:station:wmo:42046:1,2016-10-05T16:30:00Z,27.8903,-94.0367,-999.0,22222222 
TABS,ioos:station:wmo:42046:1,2016-10-05T17:00:00Z,27.8903,-94.0367,-999.0,22222222 
TABS,ioos:station:wmo:42046:1,2016-10-05T17:30:00Z,27.8903,-94.0367,-999.0,1111122 
TABS,ioos:station:wmo:42046:1,2016-10-05T18:00:00Z,27.8903,-94.0367,-999.0,22222222 
TABS,ioos:station:wmo:42046:1,2016-10-05T18:30:00Z,27.8903,-94.0367,-999.0,22222222 
TABS,ioos:station:wmo:42046:1,2016-10-05T19:00:00Z,27.8903,-94.0367,-999.0,22222222 
TABS,ioos:station:wmo:42046:1,2016-10-05T19:30:00Z,27.8903,-94.0367,-999.0,22222222 
TABS,ioos:station:wmo:42046:1,2016-10-05T20:00:00Z,27.8903,-94.0367,-999.0,22222222 
TABS,ioos:station:wmo:42046:1,2016-10-05T20:30:00Z,27.8903,-94.0367,-999.0,1111122 
TABS,ioos:station:wmo:42046:1,2016-10-05T21:00:00Z,27.8903,-94.0367,-999.0,22222222 
TABS,ioos:station:wmo:42046:1,2016-10-05T21:30:00Z,27.8903,-94.0367,-999.0,22222222 
TABS,ioos:station:wmo:42046:1,2016-10-05T22:00:00Z,27.8903,-94.0367,-999.0,22222222 
TABS,ioos:station:wmo:42046:1,2016-10-05T22:30:00Z,27.8903,-94.0367,-999.0,22222222 
TABS,ioos:station:wmo:42046:1,2016-10-05T23:00:00Z,27.8903,-94.0367,-999.0,22222222 
TABS,ioos:station:wmo:42046:1,2016-10-05T23:30:00Z,27.8903,-94.0367,-999.0,22222222 
TABS,ioos:station:wmo:42046:1,2016-10-06T00:00:00Z,27.8903,-94.0367,-999.0,22222222 
TABS,ioos:station:wmo:42046:1,2016-10-06T00:30:00Z,27.8903,-94.0367,-999.0,22222222 
TABS,ioos:station:wmo:42046:1,2016-10-06T01:00:00Z,27.8903,-94.0367,-999.0,22222222 
TABS,ioos:station:wmo:42046:1,2016-10-06T01:30:00Z,27.8903,-94.0367,-999.0,22222222 
TABS,ioos:station:wmo:42046:1,2016-10-06T02:00:00Z,27.8903,-94.0367,-999.0,22222222 
TABS,ioos:station:wmo:42046:1,2016-10-06T02:30:00Z,27.8903,-94.0367,-999.0,22222222 
TABS,ioos:station:wmo:42046:1,2016-10-06T03:00:00Z,27.8903,-94.0367,-999.0,22222222 
TABS,ioos:station:wmo:42046:1,2016-10-06T03:30:00Z,27.8903,-94.0367,-999.0,22222222 
TABS,ioos:station:wmo:42046:1,2016-10-06T04:00:00Z,27.8903,-94.0367,-999.0,22222222 
TABS,ioos:station:wmo:42046:1,2016-10-06T04:30:00Z,27.8903,-94.0367,-999.0,22222222 
TABS,ioos:station:wmo:42046:1,2016-10-06T05:00:00Z,27.8903,-94.0367,-999.0,22222222 
TABS,ioos:station:wmo:42046:1,2016-10-06T05:30:00Z,27.8903,-94.0367,-999.0,22222222 
TABS,ioos:station:wmo:42046:1,2016-10-06T06:00:00Z,27.8903,-94.0367,-999.0,22222222 
TABS,ioos:station:wmo:42046:1,2016-10-06T06:30:00Z,27.8903,-94.0367,-999.0,22222222 
TABS,ioos:station:wmo:42046:1,2016-10-06T07:00:00Z,27.8903,-94.0367,-999.0,22222222 
TABS,ioos:station:wmo:42046:1,2016-10-06T07:30:00Z,27.8903,-94.0367,-999.0,22222222 
TABS,ioos:station:wmo:42046:1,2016-10-06T08:00:00Z,27.8903,-94.0367,-999.0,22222222 
TABS,ioos:station:wmo:42046:1,2016-10-06T08:30:00Z,27.8903,-94.0367,-999.0,22222222 
TABS,ioos:station:wmo:42046:1,2016-10-06T09:00:00Z,27.8903,-94.0367,-999.0,22222222 
TABS,ioos:station:wmo:42046:1,2016-10-06T09:30:00Z,27.8903,-94.0367,-999.0,22222222 
TABS,ioos:station:wmo:42046:1,2016-10-06T10:00:00Z,27.8903,-94.0367,-999.0,22222222 
TABS,ioos:station:wmo:42046:1,2016-10-06T10:30:00Z,27.8903,-94.0367,-999.0,22222222 
TABS,ioos:station:wmo:42046:1,2016-10-06T11:00:00Z,27.8903,-94.0367,-999.0,22222222 
TABS,ioos:station:wmo:42046:1,2016-10-06T11:30:00Z,27.8903,-94.0367,-999.0,22222222 
TABS,ioos:station:wmo:42046:1,2016-10-06T12:00:00Z,27.8903,-94.0367,-999.0,22222222 
TABS,ioos:station:wmo:42046:1,2016-10-06T12:30:00Z,27.8903,-94.0367,-999.0,22222222 
TABS,ioos:station:wmo:42046:1,2016-10-06T13:00:00Z,27.8903,-94.0367,-999.0,22222222 
TABS,ioos:station:wmo:42046:1,2016-10-06T13:30:00Z,27.8903,-94.0367,-999.0,22222222 
TABS,ioos:station:wmo:42046:1,2016-10-06T14:00:00Z,27.8903,-94.0367,-999.0,22222222 
TABS,ioos:station:wmo:42046:1,2016-10-06T14:30:00Z,27.8903,-94.0367,-999.0,22222222 
TABS,ioos:station:wmo:42046:1,2016-10-06T15:00:00Z,27.8903,-94.0367,-999.0,22222222 
TABS,ioos:station:wmo:42046:1,2016-10-06T15:30:00Z,27.8903,-94.0367,-999.0,22222222 
TABS,ioos:station:wmo:42046:1,2016-10-06T16:00:00Z,27.8903,-94.0367,-999.0,22222222 
TABS,ioos:station:wmo:42046:1,2016-10-06T16:30:00Z,27.8903,-94.0367,-999.0,22222222 
TABS,ioos:station:wmo:42046:1,2016-10-06T17:00:00Z,27.8903,-94.0367,-999.0,22222222 
TABS,ioos:station:wmo:42046:1,2016-10-06T17:30:00Z,27.8903,-94.0367,-999.0,22222222 
TABS,ioos:station:wmo:42046:1,2016-10-06T18:00:00Z,27.8903,-94.0367,-999.0,22222222 
TABS,ioos:station:wmo:42046:1,2016-10-06T18:30:00Z,27.8903,-94.0367,-999.0,22222222 
TABS,ioos:station:wmo:42046:1,2016-10-06T19:00:00Z,27.8903,-94.0367,-999.0,22222222 
TABS,ioos:station:wmo:42046:1,2016-10-06T19:30:00Z,27.8903,-94.0367,-999.0,22222222 
TABS,ioos:station:wmo:42046:1,2016-10-06T20:00:00Z,27.8903,-94.0367,-999.0,22222222 
TABS,ioos:station:wmo:42046:1,2016-10-06T20:30:00Z,27.8903,-94.0367,-999.0,22222222 
TABS,ioos:station:wmo:42046:1,2016-10-06T21:00:00Z,27.8903,-94.0367,-999.0,22222222 
TABS,ioos:station:wmo:42046:1,2016-10-06T21:30:00Z,27.8903,-94.0367,-999.0,22222222 
TABS,ioos:station:wmo:42046:1,2016-10-06T22:00:00Z,27.8903,-94.0367,-999.0,22222222 